Date,TemperatureHighF,TemperatureAvgF,TemperatureLowF,DewpointHighF,DewpointAvgF,DewpointLowF,HumidityHigh,HumidityAvg,HumidityLow,PressureMaxIn,PressureMinIn,WindSpeedMaxMPH,WindSpeedAvgMPH,GustSpeedMaxMPH,PrecipitationSumIn
2013-5-1,81.7,71.8,66.2,81.1,71.2,65.6,98,98,98,29.71,29.62,6,3,0,0.05
2013-5-2,79.2,70.2,65.7,78.5,69.6,65.1,98,98,98,29.77,29.67,6,2,0,0.19
2013-5-3,68.0,56.7,43.3,67.4,56.2,42.8,98,98,98,29.87,29.71,9,3,0,0.13
2013-5-4,77.0,58.7,39.4,62.7,50.9,38.9,98,80,41,29.85,29.67,14,2,0,0.00
2013-5-5,68.4,57.9,47.8,59.3,53.2,47.3,98,85,60,29.86,29.70,10,3,0,0.00
2013-5-6,82.0,62.9,45.9,67.6,57.3,45.3,98,84,55,29.87,29.74,11,2,0,0.00
2013-5-7,87.4,70.0,53.2,76.8,63.7,52.7,98,83,51,29.87,29.78,7,1,0,0.00
2013-5-8,86.9,72.3,55.8,80.5,67.9,55.2,98,88,58,29.91,29.83,5,2,0,0.00
2013-5-9,84.7,73.9,60.6,83.3,72.8,60.1,98,97,79,29.90,29.80,6,2,0,0.00
2013-5-10,72.9,68.8,66.0,72.3,68.3,65.4,98,98,98,29.87,29.68,11,2,0,3.15
2013-5-11,66.2,66.2,66.2,65.6,65.6,65.6,98,98,98,29.78,29.78,0,0,0,0.00
2013-5-12,66.2,66.2,66.2,65.6,65.6,65.6,98,98,98,29.78,29.78,0,0,0,0.00
2013-5-13,66.2,66.2,66.2,65.6,65.6,65.6,98,98,98,29.78,29.78,0,0,0,0.00
2013-5-14,66.2,66.2,66.2,65.6,65.6,65.6,98,98,98,29.78,29.78,0,0,0,0.00
2013-5-15,66.2,66.2,66.2,65.6,65.6,65.6,98,98,98,29.78,29.78,0,0,0,0.00
2013-5-16,88.5,78.1,66.2,82.7,74.4,65.6,98,90,63,63.77,29.69,7,3,0,0.00
2013-5-17,89.1,79.0,69.8,88.4,78.4,69.2,98,98,98,29.82,29.74,9,3,0,0.01
2013-5-18,78.6,75.4,74.3,78.0,74.8,73.7,98,98,98,29.84,29.77,4,2,0,0.00
2013-5-19,91.2,83.7,76.5,90.2,83.1,75.9,98,98,97,29.79,29.73,9,3,0,0.00
2013-5-20,93.4,82.5,73.8,92.7,81.9,73.2,98,98,98,29.80,29.68,7,3,0,0.00
2013-5-21,91.6,82.4,75.2,90.9,81.7,74.6,98,98,98,29.76,29.59,8,3,0,0.00
2013-5-22,88.3,74.8,67.5,87.7,74.2,66.9,98,98,98,29.80,29.67,8,2,0,3.44
2013-5-23,94.8,77.6,66.6,91.1,76.4,66.0,98,96,73,29.85,29.76,5,1,0,0.92
2013-5-24,90.5,78.2,65.5,89.9,77.6,64.9,98,98,98,29.96,29.84,8,2,0,0.01
2013-5-25,88.2,77.4,66.9,84.8,74.0,66.3,98,90,70,30.03,29.91,9,3,0,0.00
2013-5-26,87.4,76.8,67.5,86.8,75.8,66.9,98,97,81,29.99,29.89,7,2,0,0.00
2013-5-27,93.2,79.0,65.3,85.4,75.7,64.7,98,91,69,29.93,29.79,7,2,0,0.00
2013-5-28,87.3,77.8,68.0,86.6,77.2,67.4,98,98,98,29.88,29.77,7,2,0,0.00
2013-5-29,85.5,76.4,67.6,84.8,75.8,67.1,98,98,98,29.82,29.72,10,2,0,0.09
2013-5-30,87.3,79.7,73.9,86.6,79.0,73.3,98,98,98,29.80,29.71,9,3,0,0.37
2013-5-31,91.4,81.4,74.3,90.8,80.7,73.7,98,98,98,29.80,29.72,7,2,0,0.19